When you browse on this site, cookies collect data to enhance your experience and personalize the content and advertising you see.
Visit our Privacy Policy to learn more. By continuing to use the site, you agree to this use of cookies and data.
  • In Latvia
  • List of Countries
  • For 7 days
  • Water Temperature
  • Weather Map
  • Weather Widgets
  • user-avatar
    Login

    Hourly Weather Albany

    Today, 18 August, Sunday

    Time Temperature Precipitation Wind Pressure Humidity
    00:00 +22°C° 0 mm 1 mps 759 mmHg 93%
    01:00 +19°C° 0 mm 0 mps 759 mmHg 94%
    02:00 +19°C° 0 mm 0 mps 759 mmHg 94%
    03:00 +19°C° 0 mm 0 mps 759 mmHg 94%
    04:00 +19°C° 0 mm 0 mps 759 mmHg 94%
    05:00 +19°C° 0 mm 0 mps 759 mmHg 94%
    06:00 +20°C° 0 mm 0 mps 759 mmHg 94%
    07:00 +21°C° 0 mm 0 mps 760 mmHg 93%
    08:00 +23°C° 0 mm 0 mps 760 mmHg 84%
    09:00 +25°C° 0 mm 0 mps 760 mmHg 75%
    10:00 +29°C° 0 mm 1 mps 760 mmHg 65%
    11:00 +30°C° 0 mm 1 mps 759 mmHg 59%
    12:00 +31°C° 0 mm 1 mps 759 mmHg 53%
    13:00 +34°C° 0 mm 2 mps 758 mmHg 47%
    14:00 +34°C° 0.1 mm 2 mps 758 mmHg 50%
    15:00 +33°C° 0.1 mm 1 mps 758 mmHg 52%
    16:00 +33°C° 0.1 mm 1 mps 758 mmHg 55%
    17:00 +29°C° 3.3 mm 2 mps 758 mmHg 67%
    18:00 +26°C° 3.3 mm 3 mps 758 mmHg 78%
    19:00 +22°C° 3.3 mm 4 mps 758 mmHg 89%
    20:00 +22°C° 0.5 mm 3 mps 758 mmHg 89%
    21:00 +21°C° 0.5 mm 2 mps 758 mmHg 89%
    22:00 +22°C° 0.5 mm 1 mps 758 mmHg 89%
    23:00 +22°C° 0 mm 1 mps 758 mmHg 90%

    Tomorrow, 19 August, Monday

    Time Temperature Precipitation Wind Pressure Humidity
    00:00 +22°C° 0 mm 1 mps 758 mmHg 90%
    01:00 +22°C° 0 mm 1 mps 758 mmHg 91%
    02:00 +21°C° 0 mm 1 mps 758 mmHg 91%
    03:00 +21°C° 0 mm 1 mps 758 mmHg 92%
    04:00 +21°C° 0 mm 1 mps 758 mmHg 92%
    05:00 +22°C° 0 mm 1 mps 758 mmHg 92%
    06:00 +23°C° 0 mm 2 mps 758 mmHg 92%
    07:00 +24°C° 0 mm 2 mps 759 mmHg 92%
    08:00 +26°C° 0 mm 2 mps 759 mmHg 82%
    09:00 +28°C° 0 mm 2 mps 759 mmHg 73%
    10:00 +31°C° 0 mm 2 mps 759 mmHg 63%
    11:00 +32°C° 0 mm 2 mps 758 mmHg 57%
    12:00 +34°C° 0 mm 3 mps 758 mmHg 52%
    13:00 +36°C° 0 mm 3 mps 757 mmHg 46%
    14:00 +36°C° 0.1 mm 3 mps 757 mmHg 46%
    15:00 +35°C° 0.1 mm 3 mps 757 mmHg 46%
    16:00 +35°C° 0.1 mm 3 mps 757 mmHg 46%
    17:00 +32°C° 0 mm 2 mps 757 mmHg 54%
    18:00 +30°C° 0 mm 2 mps 758 mmHg 61%
    19:00 +28°C° 0 mm 1 mps 758 mmHg 69%
    20:00 +27°C° 0.1 mm 1 mps 758 mmHg 72%
    21:00 +27°C° 0.1 mm 1 mps 758 mmHg 76%
    22:00 +24°C° 0.1 mm 0 mps 759 mmHg 79%
    23:00 +23°C° 0 mm 0 mps 759 mmHg 81%

    Day after tomorrow, 20 August, Tuesday

    Time Temperature Precipitation Wind Pressure Humidity
    00:00 +23°C° 0 mm 0 mps 759 mmHg 84%
    01:00 +22°C° 0 mm 0 mps 758 mmHg 86%
    02:00 +22°C° 0 mm 0 mps 759 mmHg 87%
    03:00 +21°C° 0 mm 0 mps 759 mmHg 89%
    04:00 +21°C° 0 mm 0 mps 759 mmHg 90%
    05:00 +22°C° 0 mm 0 mps 759 mmHg 88%
    06:00 +23°C° 0 mm 0 mps 760 mmHg 86%
    07:00 +23°C° 0 mm 0 mps 760 mmHg 84%
    08:00 +25°C° 0 mm 0 mps 760 mmHg 77%
    09:00 +29°C° 0 mm 1 mps 760 mmHg 70%
    10:00 +31°C° 0 mm 1 mps 760 mmHg 64%
    11:00 +32°C° 0.1 mm 1 mps 760 mmHg 62%
    12:00 +32°C° 0.1 mm 1 mps 759 mmHg 60%
    13:00 +33°C° 0.1 mm 1 mps 759 mmHg 58%
    14:00 +33°C° 0.3 mm 1 mps 759 mmHg 61%
    15:00 +32°C° 0.3 mm 1 mps 758 mmHg 64%
    16:00 +32°C° 0.3 mm 1 mps 758 mmHg 66%
    17:00 +30°C° 0.4 mm 1 mps 758 mmHg 71%
    18:00 +27°C° 0.4 mm 0 mps 758 mmHg 76%
    19:00 +25°C° 0.4 mm 0 mps 758 mmHg 81%
    20:00 +24°C° 0.3 mm 0 mps 758 mmHg 84%
    21:00 +26°C° 0.3 mm 1 mps 759 mmHg 86%
    22:00 +25°C° 0.3 mm 1 mps 759 mmHg 89%
    23:00 +25°C° 0.1 mm 1 mps 759 mmHg 90%

    21 August, Wednesday

    Time Temperature Precipitation Wind Pressure Humidity
    00:00 +24°C° 0.1 mm 1 mps 758 mmHg 92%
    01:00 +23°C° 0.1 mm 1 mps 758 mmHg 94%
    02:00 +23°C° 0 mm 1 mps 758 mmHg 94%
    03:00 +23°C° 0 mm 1 mps 758 mmHg 94%
    04:00 +22°C° 0 mm 1 mps 757 mmHg 95%
    05:00 +23°C° 0.2 mm 1 mps 758 mmHg 94%
    06:00 +24°C° 0.2 mm 1 mps 758 mmHg 93%
    07:00 +24°C° 0.2 mm 1 mps 758 mmHg 92%
    08:00 +26°C° 0 mm 1 mps 757 mmHg 84%
    09:00 +28°C° 0 mm 2 mps 757 mmHg 77%
    10:00 +30°C° 0 mm 2 mps 757 mmHg 69%
    11:00 +31°C° 0.1 mm 2 mps 756 mmHg 64%
    12:00 +32°C° 0.1 mm 2 mps 756 mmHg 60%
    13:00 +34°C° 0.1 mm 2 mps 755 mmHg 56%
    14:00 +34°C° 0.1 mm 3 mps 755 mmHg 55%
    15:00 +35°C° 0.1 mm 3 mps 754 mmHg 54%
    16:00 +35°C° 0.1 mm 3 mps 754 mmHg 53%
    17:00 +33°C° 0.6 mm 3 mps 754 mmHg 62%
    18:00 +30°C° 0.6 mm 3 mps 754 mmHg 70%
    19:00 +28°C° 0.6 mm 3 mps 754 mmHg 79%
    20:00 +28°C° 0.2 mm 3 mps 754 mmHg 80%
    21:00 +27°C° 0.2 mm 3 mps 754 mmHg 82%
    22:00 +26°C° 0.2 mm 3 mps 753 mmHg 84%
    23:00 +26°C° 0.4 mm 2 mps 754 mmHg 86%

    22 August, Thursday

    Time Temperature Precipitation Wind Pressure Humidity
    00:00 +25°C° 0.4 mm 2 mps 754 mmHg 89%
    01:00 +25°C° 0.4 mm 2 mps 754 mmHg 92%
    02:00 +24°C° 0.1 mm 2 mps 754 mmHg 89%
    03:00 +23°C° 0.1 mm 2 mps 755 mmHg 87%
    04:00 +21°C° 0.1 mm 2 mps 755 mmHg 84%
    05:00 +21°C° 0 mm 2 mps 755 mmHg 82%
    06:00 +20°C° 0 mm 2 mps 755 mmHg 80%
    07:00 +20°C° 0 mm 2 mps 756 mmHg 78%
    08:00 +21°C° 0 mm 2 mps 756 mmHg 68%
    09:00 +24°C° 0 mm 3 mps 756 mmHg 57%
    10:00 +25°C° 0 mm 3 mps 756 mmHg 46%
    11:00 +26°C° 0 mm 3 mps 756 mmHg 44%
    12:00 +27°C° 0 mm 4 mps 756 mmHg 43%
    13:00 +27°C° 0 mm 4 mps 756 mmHg 41%
    14:00 +27°C° 0 mm 4 mps 756 mmHg 44%
    15:00 +26°C° 0 mm 4 mps 756 mmHg 48%
    16:00 +25°C° 0 mm 4 mps 756 mmHg 52%
    17:00 +22°C° 0 mm 4 mps 757 mmHg 55%
    18:00 +21°C° 0 mm 3 mps 757 mmHg 58%
    19:00 +19°C° 0 mm 3 mps 757 mmHg 61%
    20:00 +18°C° 0 mm 3 mps 758 mmHg 65%
    21:00 +17°C° 0 mm 2 mps 758 mmHg 69%
    22:00 +16°C° 0 mm 2 mps 758 mmHg 73%
    23:00 +15°C° 0 mm 2 mps 758 mmHg 76%

    23 August, Friday

    Time Temperature Precipitation Wind Pressure Humidity
    00:00 +15°C° 0 mm 1 mps 759 mmHg 79%
    01:00 +14°C° 0 mm 1 mps 759 mmHg 82%
    02:00 +13°C° 0 mm 1 mps 759 mmHg 83%
    03:00 +13°C° 0 mm 1 mps 759 mmHg 84%
    04:00 +13°C° 0 mm 1 mps 759 mmHg 85%
    05:00 +14°C° 0 mm 1 mps 759 mmHg 81%
    06:00 +15°C° 0 mm 1 mps 760 mmHg 77%
    07:00 +16°C° 0 mm 1 mps 760 mmHg 73%
    08:00 +18°C° 0 mm 2 mps 760 mmHg 66%
    09:00 +19°C° 0 mm 3 mps 759 mmHg 59%
    10:00 +21°C° 0 mm 3 mps 759 mmHg 52%
    11:00 +22°C° 0 mm 4 mps 759 mmHg 51%
    12:00 +23°C° 0 mm 4 mps 759 mmHg 49%
    13:00 +25°C° 0 mm 4 mps 758 mmHg 48%
    14:00 +25°C° 0 mm 4 mps 758 mmHg 49%
    15:00 +25°C° 0 mm 4 mps 758 mmHg 50%
    16:00 +25°C° 0 mm 4 mps 758 mmHg 51%
    17:00 +22°C° 0 mm 4 mps 758 mmHg 56%
    18:00 +20°C° 0 mm 3 mps 758 mmHg 60%
    19:00 +19°C° 0 mm 3 mps 759 mmHg 64%
    20:00 +18°C° 0 mm 3 mps 759 mmHg 69%
    21:00 +16°C° 0 mm 2 mps 759 mmHg 73%
    22:00 +15°C° 0 mm 1 mps 760 mmHg 77%
    23:00 +15°C° 0 mm 1 mps 760 mmHg 80%
    Show more